Regional Weather Roundup
Issued by NWS Charleston, SC

Current Version | Previous Version | Graphics & Text | Print | Product List | Glossary On
Versions: 1 2 3 4 5 6 7 8 9 10 11 12 13 14 15 16 17 18 19 20 21 22 23 24 25 26 27 28 29 30 31 32 33 34 35 36 37 38 39 40 41 42 43 44 45 46 47 48 49 50
000
ASUS42 KCHS 210341
RWRCHS

REGIONAL WEATHER ROUNDUP
NATIONAL WEATHER SERVICE CHARLESTON SC
1100 PM EDT WED SEP 20 2017

NOTE: "FAIR" INDICATES FEW OR NO CLOUDS BELOW 12,000 FEET WITH NO
SIGNIFICANT WEATHER AND/OR OBSTRUCTIONS TO VISIBILITY.

NOT ALL STATIONS ARE QUALITY CONTROLLED. USE DATA WITH CAUTION...
ESPECIALLY DEWPOINT OBSERVATIONS.

SCZ027-030-031-034>040-042>050-210400-
...SOUTHEAST SOUTH CAROLINA...

CITY           SKY/WX    TMP DP  RH WIND       PRES   REMARKS
N CHARLESTON   CLEAR     75  73  93 S6        30.02R
WATERFRONT PRK   N/A     80  74  82 VRB2      29.86R
JOHNS ISLAND   FAIR      79  75  89 SW3       30.03R
PINOPOLIS        N/A     77  73  88 VRB3      29.94R
MONCKS CORNER  FAIR      73  72  94 CALM      30.02S
SUMMERVILLE    FAIR      73  72  94 CALM      30.03S
BEAUFORT MCAS  CLEAR     80  75  84 S5        30.02R
BEAUFORT ARPT  FAIR      79  73  83 S6        30.01F
HILTON HEAD IS CLEAR     79  75  89 VRB6      30.03S
WALTERBORO     CLEAR     73  72  94 CALM      30.03S
ALLENDALE      NOT AVBL

...SOUTHERN MIDLANDS AND PEE DEE...

CITY           SKY/WX    TMP DP  RH WIND       PRES   REMARKS
GEORGETOWN     FAIR      72  72 100 CALM      30.03S
KINGSTREE      FAIR      70  68  94 CALM      30.02R
ORANGEBURG     CLEAR     74  70  87 S6        30.02R
BARNWELL       FAIR      79  72  78 CALM      30.02S
AIKEN          FAIR      72  68  88 CALM      30.06S
MANNING        FAIR      77  73  88 CALM      30.02S
COLUMBIA       CLEAR     75  69  81 CALM      30.01R
SUMTER         CLEAR     73  69  87 CALM      30.00R
FLORENCE       CLEAR     72  69  90 CALM      30.01R
MYRTLE BEACH   CLEAR     78  74  87 SW6       30.03R
N MYRTLE BEACH CLEAR     79  75  87 SW9       30.01R

$$

GAZ063-065-086>088-099>101-113>116-118-119-134>141-150-210400-
...SOUTHEAST GEORGIA...

CITY           SKY/WX    TMP DP  RH WIND       PRES   REMARKS
SAVANNAH ARPT  PTCLDY    75  70  84 CALM      30.02S
HUNTER AAF     PTCLDY    74  72  92 CALM      29.99S
FORT STEWART   PTCLDY    74  68  83 CALM      30.00S
STATESBORO     CLEAR     75  68  79 CALM      30.02S
SYLVANIA       CLEAR     75  73  92 CALM      30.03F
CLAXTON        FAIR      74  73  95 CALM      30.02S

...CSRA...CENTRAL AND FAR SOUTHEAST GEORGIA...

CITY           SKY/WX    TMP DP  RH WIND       PRES   REMARKS
THOMSON        CLEAR     71  70  95 CALM      30.08R
AUGUSTA-BUSH   CLEAR     73  71  93 S3        30.01R FOG
AUGUSTA-DANIEL CLEAR     81  69  67 CALM      30.02R
SWAINSBORO     FAIR      75  75 100 S5        30.03R
VIDALIA        PTCLDY    75  73  94 CALM      30.03R
EASTMAN        FAIR      73  73 100 CALM      30.05S FOG
HAZLEHURST     FAIR      76  73  91 CALM      30.02S
ALMA           CLEAR     72  70  93 NW5       30.02R
WAYCROSS       CLOUDY    74  71  90 CALM      30.03R
JESUP          NOT AVBL
BAXLEY         FAIR      72  72 100 CALM      30.02S
BRUNSWICK      MOCLDY    79  72  78 CALM      30.03S
SAINT SIMONS   CLOUDY    81  74  79 S7        30.01F

$$

SCZ027-028-034-036>038-045-046-048>050-GAZ119-141-210400-
...LAKE AND SUPPLEMENTAL COASTAL OBSERVATIONS...

STATION/POSITION TIME  TEMP    WIND        PRES    WAVE   SWELL
                       AIR SEA DIR/SP/G            HT/PER HT/PER/DIR
                 (UTC) (F)     (DEG/KT/KT) (MB)    (FT/S) (FT/S/D)
WINYAH BAY       0230   79     210/  7     1016.0S
LAKE MURRAY      0320   77        CALM     1015.6
ACE BASIN NERRS  0245   79        CALM     1017.0R
FORT PULASKI     0300   79 80  190/  2/  5 1016.9
SAPELO ISLAND    0300   81        CALM     1016.0

$$

ANZ835-935-AMZ111-154-330-350-352-354-370-450-454-472-210400-
...C-MAN AND BUOY OBSERVATIONS...

STATION/POSITION TIME  TEMP    WIND        PRES    WAVE   SWELL
                       AIR SEA DIR/SP/G            HT/PER HT/PER/DIR
                 (UTC) (F)     (DEG/KT/KT) (MB)    (FT/S) (FT/S/D)
BUOY 41004       0310   81 82  200/  8/ 10 1016.1
BUOY 41008       0250   81 80  160/  8/  8 1016.3R   2/12   2/ 60/12
FOLLY BEACH CMAN 0300   80     200/  9/ 10 1017.3R
CAPERS NEARSHORE 0308   78 81  220/ 10/ 16 1016.4R
FRIPP NEARSHORE  0308   80     200/ 10/ 12 1022.1R


STATION/POSITION TIME  TEMP    WIND        PRES    WAVE   SWELL
                       AIR SEA DIR/SP/G            HT/PER HT/PER/DIR
                 (UTC) (F)     (DEG/KT/KT) (MB)    (FT/S) (FT/S/D)
5E ST. MARYS GA  0300      83                N/A     3/13   2/ 90/13
FRYING PAN BUOY  0310   81 82  240/ 10/ 12 1016.0
BUOY 41025       0250   77 75  260/  8/ 10 1015.3R   5/11   5/ 60/11
CAPE LOOKOUT NC  0300   78     240/  8/ 10 1015.3R
BUOY 41002       0250   79 80  120/  2/  2 1016.7R   7/11   7/ 10/11
BUOY 41010       0310      85   80/  8/ 12 1016.3
ST AUGUSTINE FL  0300   81 84  150/ 10/ 11 1016.9R


$$



USA.gov is the U.S. government's official web portal to all federal, state and local government web resources and services.